#timestamp,LO_Frequency,Hit,StdDev 
1505502015.8,286046999.1,N
1505502035.6,286046997.4,N
1505502055.4,286046996.7,N
1505502075.3,286046997.3,N
1505502095.1,286046991.9,Y
1505502096.0,286046991.9,P
1505502115.8,286046991.9,N
1505502135.7,286046993.0,N
1505502155.5,286046990.6,Y
1505502175.3,286047001.1,P
1505502195.2,286047001.4,N
1505502215.9,286047004.0,N
1505502235.7,286047003.2,N
1505502255.6,286047005.4,N
1505502275.4,286047003.8,N
1505502295.2,286046999.8,N
1505502315.0,286047000.4,N
1505502316.0,286047000.4,N
1505502335.8,286046998.8,N
1505502355.6,286047002.2,N
1505502375.4,286046999.7,N
1505502395.3,286047002.3,N
1505502415.1,286047000.6,N
1505502435.8,286046999.2,N
1505502455.7,286046997.9,N
1505502475.5,286046998.3,N
1505502495.3,286047001.2,N
1505502515.2,286047001.2,N
1505502535.9,286046999.3,N
1505502555.7,286046996.9,N
1505502575.6,286046994.9,N
1505502595.4,286046998.7,N
1505502615.2,286047000.2,N
1505502635.1,286047003.8,N
1505502636.0,286047003.8,N
1505502655.8,286047007.8,N
1505502675.6,286047014.6,Y
1505502695.5,286047015.3,P
1505502715.3,286047016.4,N
1505502735.1,286047019.7,N
1505502755.8,286047021.0,N
1505502775.7,286047026.6,Y
1505502795.5,286047010.1,P
1505502815.4,286047010.5,P
1505502835.2,286047009.9,P
1505502855.0,286047008.1,Y
1505502855.9,286047008.1,P
1505502875.8,286046998.4,N
1505502895.6,286046998.5,N
1505502915.4,286047001.0,N
1505502935.2,286047004.4,N
1505502955.1,286047004.7,N
1505502956.0,286047004.7,N
1505502975.8,286047005.3,N
1505502995.6,286047006.7,N
1505503015.5,286047005.0,N
1505503035.3,286047008.3,N
1505503055.1,286047007.4,N
1505503075.9,286047003.2,N
1505503095.7,286047004.7,N
1505503115.5,286047004.4,N
1505503135.4,286047002.5,N
1505503155.2,286047002.4,N
1505503175.0,286047000.0,N
1505503175.9,286047000.0,N
1505503195.8,286046998.4,N
1505503215.6,286046999.4,N
1505503235.4,286046996.5,N
1505503255.2,286046997.1,N
1505503275.1,286046997.5,N
1505503276.0,286046997.5,N
1505503295.8,286046996.7,N
1505503315.6,286047001.1,N
1505503335.5,286047003.2,N
1505503355.3,286047003.0,N
1505503375.1,286047002.9,N
1505503395.9,286047008.6,N
1505503415.7,286047006.1,N
1505503435.5,286047003.7,N
1505503455.4,286047002.4,N
1505503475.2,286046995.9,N
1505503495.0,286046991.9,N
1505503495.9,286046991.9,N
1505503515.8,286046988.8,N
1505503535.6,286046991.5,N
1505503555.4,286046988.6,N
1505503575.2,286046994.1,N
1505503595.1,286046994.1,N
1505503596.0,286046994.1,N
1505503615.8,286046994.4,N
1505503635.6,286046993.9,N
1505503655.5,286046994.7,N
1505503675.3,286046990.4,N
1505503695.1,286046992.4,N
1505503715.9,286046992.5,N
1505503735.7,286046988.8,N
1505503755.5,286046988.9,N
1505503775.4,286046989.1,N
1505503795.2,286046990.5,N
1505503815.0,286046988.9,N
1505503815.9,286046988.9,N
1505503835.8,286046988.8,N
1505503855.6,286046987.9,N
1505503875.4,286046986.4,N
1505503895.3,286046980.7,Y
1505503915.1,286046988.0,P
1505503916.0,286046988.0,P
1505503935.8,286046987.9,P
1505503955.7,286046991.5,Y
1505503975.5,286047001.2,P
1505503995.3,286046999.2,N
1505504015.2,286046999.6,N
1505504035.9,286047000.5,N
1505504055.7,286047000.5,N
1505504075.6,286047002.4,N
1505504095.4,286046998.7,N
1505504115.2,286046995.3,N
1505504135.0,286046997.4,N
1505504136.0,286046997.4,N
1505504155.8,286046999.2,N
1505504175.6,286046999.4,N
1505504195.4,286046999.0,N
1505504215.3,286046998.1,N
1505504235.1,286046998.2,N
1505504255.8,286046996.9,N
1505504275.7,286046998.0,N
1505504295.5,286046994.7,N
1505504315.3,286046992.2,N
1505504335.2,286046994.0,N
1505504355.9,286046993.7,N
1505504375.7,286046996.3,N
1505504395.6,286046995.2,N
1505504415.4,286046994.8,N
1505504435.2,286046991.8,N
1505504455.1,286046994.7,N
1505504456.0,286046994.7,N
1505504475.8,286046995.4,N
1505504495.6,286046995.7,N
1505504515.4,286046993.6,N
1505504535.3,286046996.6,N
1505504555.1,286047001.0,N
1505504575.8,286047000.8,N
1505504595.7,286047002.6,N
1505504615.5,286047003.8,N
1505504635.3,286047006.3,N
1505504655.2,286047010.1,Y
1505504675.0,286047014.9,P
1505504675.9,286047014.9,N
1505504695.7,286047017.9,N
1505504715.6,286047020.4,N
1505504735.4,286047022.6,N
1505504755.2,286047025.7,Y
1505504775.1,286047013.7,P
1505504776.0,286047013.7,P
1505504795.8,286047013.3,P
1505504815.7,286047012.3,Y
1505504835.5,286046996.8,P
1505504855.3,286046996.5,N
1505504875.1,286046999.1,N
1505504895.9,286047002.5,N
1505504915.7,286047001.9,N
1505504935.5,286047002.8,N
1505504955.4,286047003.2,N
1505504975.2,286047006.3,N
1505504995.0,286047002.9,N
1505504995.9,286047002.9,N
1505505015.8,286047006.2,N
1505505035.6,286047007.5,N
1505505055.4,286047005.7,N
1505505075.3,286047001.8,N
1505505095.1,286047005.9,N
1505505096.0,286047005.9,N
1505505115.8,286047003.0,N
1505505135.7,286047002.0,N
1505505155.5,286047006.0,N
1505505175.3,286047009.0,N
1505505195.1,286047008.0,N
1505505215.9,286047007.4,N
1505505235.7,286047002.0,N
1505505255.5,286047001.9,N
1505505275.4,286047002.6,N
1505505295.2,286047001.8,N
1505505315.0,286047004.5,N
1505505315.9,286047004.5,N
1505505335.8,286047009.0,N
1505505355.6,286047005.8,N
1505505375.4,286047001.0,N
1505505395.3,286046998.8,N
1505505415.1,286046997.9,N
1505505416.0,286046997.9,N
1505505435.8,286046994.6,N
1505505455.7,286046993.2,N
1505505475.5,286046992.8,N
1505505495.3,286046994.7,N
1505505515.2,286046992.8,N
1505505535.9,286046988.9,N
1505505555.7,286046990.8,N
1505505575.5,286046991.2,N
1505505595.4,286046988.2,N
